Location: Caserta
(41.0670°N, 14.3330°E)
Time: 01:13:25
(UTC+01:00)

STARLINK-1329 - Pass Details

Date: 11 October 2020
Orbit: 548 x 551 km, 53.0° (Epoch: 27 October)

Event Time Altitude Azimuth Distance (km) Brightness Sun altitude
Exits shadow 04:37:36 16° 13° (NNE) 1,471 6.1 -29.3°
Drops below altitude 10° 04:39:56 10° 47° (NE) 1,827 7.0 -28.8°
Sets 04:42:53 0° 69° (ENE) 2,721 8.4 -28.3°
